Total_Precipitation_Accumulation
0.55 0.34 0.45 0.43 0.35 0.33 0.35 0.40 0.44 0.48 0.45 0.39 0.39 0.45 0.51 0.47 0.48 0.56 0.73 0.92 1.18 1.46 1.73 1.89 1.99 2.15 2.24 2.19 2.28 2.48 2.36 2.41 2.58 2.52 2.49 2.54 2.54 2.41 2.56 2.63 2.55 2.29 2.30
0.59 0.36 0.44 0.43 0.39 0.36 0.34 0.38 0.42 0.42 0.42 0.39 0.36 0.42 0.57 0.54 0.55 0.61 0.81 0.99 1.15 1.34 1.49 1.65 1.84 1.86 1.92 1.92 1.99 2.22 2.28 2.29 2.55 2.86 3.01 2.93 2.83 2.64 2.67 2.82 2.88 2.69 2.49
0.72 0.53 0.45 0.45 0.39 0.36 0.35 0.39 0.40 0.39 0.42 0.41 0.36 0.36 0.43 0.46 0.52 0.64 0.71 0.88 1.05 1.24 1.40 1.51 1.70 1.62 1.56 1.55 1.65 1.85 1.91 2.08 2.49 3.05 3.52 3.44 3.10 3.04 2.87 2.71 2.73 2.54 2.57
0.68 0.66 0.51 0.48 0.43 0.36 0.35 0.40 0.44 0.42 0.41 0.39 0.36 0.35 0.40 0.48 0.55 0.65 0.70 0.81 1.06 1.28 1.43 1.46 1.58 1.61 1.54 1.49 1.49 1.53 1.58 1.91 2.52 2.99 3.51 3.48 3.41 3.66 3.12 2.58 2.46 2.36 2.49
0.60 0.61 0.62 0.54 0.49 0.43 0.42 0.45 0.47 0.46 0.43 0.44 0.44 0.44 0.49 0.56 0.57 0.66 0.78 0.87 1.04 1.24 1.42 1.51 1.49 1.58 1.51 1.43 1.40 1.43 1.60 2.03 2.58 2.83 3.16 3.75 4.15 4.00 3.36 2.79 2.54 2.39 2.45
0.65 0.64 0.64 0.61 0.61 0.59 0.55 0.56 0.55 0.50 0.48 0.50 0.52 0.54 0.58 0.65 0.70 0.75 0.96 1.16 1.24 1.38 1.41 1.40 1.41 1.48 1.37 1.27 1.29 1.43 1.66 2.10 2.37 2.51 3.04 3.75 3.67 3.54 3.29 3.06 2.75 2.56 2.44
0.71 0.85 0.71 0.67 0.70 0.72 0.73 0.69 0.67 0.61 0.60 0.60 0.61 0.63 0.65 0.74 0.84 0.86 1.05 1.36 1.55 1.63 1.55 1.43 1.32 1.25 1.15 1.16 1.30 1.46 1.67 1.98 2.15 2.64 3.16 3.49 3.30 3.15 3.13 3.00 2.79 2.61 2.45
0.75 0.82 0.77 0.73 0.75 0.77 0.84 0.90 0.87 0.79 0.74 0.72 0.75 0.73 0.66 0.67 0.76 0.94 1.14 1.39 1.64 1.69 1.57 1.40 1.32 1.22 1.16 1.26 1.38 1.55 1.68 1.66 1.73 2.30 2.91 3.05 2.74 2.87 3.07 2.87 2.70 2.57 2.45
0.86 0.97 0.98 1.02 1.00 1.06 1.15 1.15 1.09 1.01 0.95 0.88 0.83 0.77 0.72 0.71 0.79 0.94 1.20 1.45 1.65 1.72 1.58 1.41 1.36 1.30 1.29 1.39 1.43 1.49 1.53 1.60 1.71 2.07 2.60 3.02 2.49 2.69 3.07 2.96 2.71 2.58 2.44
1.34 1.42 1.46 1.51 1.47 1.38 1.31 1.27 1.21 1.14 1.09 1.02 0.90 0.83 0.84 0.88 1.00 1.17 1.21 1.43 1.69 1.79 1.64 1.54 1.50 1.41 1.41 1.45 1.45 1.48 1.62 1.57 1.64 1.95 2.45 2.54 2.41 2.86 3.22 3.02 2.75 2.62 2.44
1.99 1.98 1.87 1.85 1.78 1.75 1.60 1.37 1.45 1.37 1.33 1.26 1.17 1.08 1.15 1.27 1.46 1.57 1.44 1.71 1.93 1.94 1.83 1.82 1.79 1.69 1.64 1.57 1.57 1.53 1.56 1.46 1.72 2.07 2.60 2.62 2.80 3.14 3.43 3.30 2.98 2.75 2.57
2.51 2.41 2.13 2.22 2.19 2.07 1.92 1.89 1.91 1.76 1.77 1.75 1.76 1.54 1.66 2.06 2.16 1.88 2.09 2.25 2.49 2.38 2.13 2.10 2.05 1.87 1.70 1.64 1.77 1.72 1.41 1.36 1.69 1.99 2.35 2.64 2.91 3.29 3.48 3.36 3.07 2.83 2.70
2.55 2.37 2.47 2.66 2.51 2.56 2.78 2.80 2.57 2.45 2.48 2.35 2.38 2.21 2.30 2.33 2.23 2.29 2.51 2.64 2.85 2.81 2.66 2.58 2.31 1.99 1.90 1.95 1.88 1.65 1.53 1.55 1.68 1.90 2.19 2.51 2.78 3.22 3.50 3.38 3.11 2.94 2.87
2.85 2.59 2.68 2.70 2.69 2.85 3.03 3.23 3.27 3.04 3.03 2.90 2.85 2.66 2.77 2.86 2.90 2.88 3.10 3.27 3.44 3.48 3.43 3.15 2.80 2.66 2.39 2.23 2.03 1.94 1.79 1.73 1.93 2.16 2.36 2.37 2.51 2.90 3.26 3.35 3.21 3.05 2.99
3.43 3.17 3.03 3.14 3.01 3.01 3.31 3.57 3.47 3.52 3.41 3.51 3.52 3.20 3.26 3.27 3.31 3.52 3.59 3.88 3.87 3.89 3.77 3.51 3.08 2.93 2.80 2.53 2.26 2.14 2.08 2.01 2.11 2.22 2.39 2.42 2.42 2.68 3.09 3.38 3.39 3.31 3.37
3.87 3.74 3.51 3.38 3.39 3.31 3.53 3.89 4.03 3.86 3.83 3.79 3.95 3.75 3.65 3.68 3.81 3.90 3.94 4.20 4.06 3.80 3.80 3.59 3.23 3.08 2.93 2.78 2.41 2.16 2.14 2.36 2.29 2.22 2.38 2.44 2.41 2.46 2.81 3.31 3.63 3.80 3.92
4.10 3.91 3.90 3.64 3.88 4.01 4.24 4.31 4.45 4.59 4.51 4.33 4.24 4.29 4.18 4.23 4.36 4.23 4.37 4.55 4.38 4.07 4.01 3.89 3.72 3.38 3.19 3.14 2.90 2.57 2.43 2.51 2.57 2.63 2.64 2.65 2.67 2.63 2.81 3.14 3.48 3.76 3.99
4.07 4.12 4.25 3.98 4.08 4.38 4.44 4.50 4.75 5.11 5.16 4.92 4.67 4.66 4.57 4.71 4.84 4.91 4.76 4.66 4.55 4.30 4.22 4.32 4.05 3.71 3.61 3.62 3.39 3.00 2.69 2.77 2.84 2.77 2.74 2.76 2.95 2.85 2.91 2.93 3.11 3.40 3.70
4.03 4.05 4.28 4.49 4.37 4.62 4.75 4.84 5.10 5.41 5.59 5.39 5.14 4.99 5.02 5.01 4.93 5.10 5.12 5.05 4.86 4.70 4.60 4.24 4.17 4.02 3.99 3.91 3.43 3.20 2.87 2.73 2.80 2.72 2.74 2.77 2.99 3.10 3.10 2.87 2.99 3.35 3.61
4.14 4.26 4.37 4.70 4.75 5.06 5.20 5.06 5.27 5.45 5.52 5.46 5.41 5.35 5.48 5.54 5.33 5.37 5.26 5.19 5.13 5.11 4.97 4.73 4.61 4.50 4.20 4.06 3.57 3.32 3.06 2.76 2.67 2.63 2.59 2.66 2.69 2.72 2.83 2.86 2.92 2.91 3.22
4.40 4.49 4.48 4.63 4.92 5.11 5.26 5.30 5.70 5.74 5.57 5.77 6.01 5.91 6.05 6.10 5.81 5.73 5.60 5.49 5.30 5.17 5.06 4.92 4.75 4.58 4.22 4.08 3.93 3.62 3.14 2.71 2.64 2.57 2.45 2.51 2.49 2.43 2.56 2.66 2.86 2.85 2.80
4.41 4.59 4.84 4.95 5.00 5.14 5.62 6.08 6.48 6.86 6.80 6.71 6.88 6.94 6.71 6.57 6.44 6.18 6.21 5.92 5.58 5.37 5.09 4.83 4.66 4.39 4.01 3.99 4.02 4.11 3.66 3.21 2.56 2.17 2.19 2.18 2.14 2.15 2.26 2.37 2.52 2.64 2.60
4.16 4.42 4.65 4.96 5.36 5.92 6.60 7.08 7.35 7.72 7.87 7.62 7.33 7.16 6.92 6.70 6.49 6.14 5.94 5.85 5.60 5.09 4.84 4.65 4.41 4.27 4.06 3.92 3.81 4.06 3.85 3.45 2.90 2.48 2.15 1.95 1.97 2.09 2.15 2.26 2.30 2.32 2.31
3.75 4.12 4.55 4.96 5.58 6.50 7.22 7.69 8.11 8.26 8.29 8.11 7.80 7.36 6.95 6.54 6.11 5.75 5.53 5.27 5.06 4.76 4.55 4.18 4.07 4.08 4.09 3.88 3.73 3.47 3.23 3.07 3.12 2.85 2.44 2.16 2.05 2.03 1.99 1.95 1.99 2.10 2.16
3.50 3.86 4.31 4.79 5.53 6.28 6.94 7.58 8.13 8.30 8.26 7.98 7.53 6.98 6.47 5.99 5.52 5.07 4.82 4.57 4.32 4.12 3.91 3.63 3.56 3.60 3.68 3.65 3.58 3.47 3.32 3.17 2.95 2.83 2.71 2.60 2.42 2.17 2.02 1.95 1.92 1.92 1.92
3.14 3.50 3.96 4.42 4.99 5.64 6.12 6.74 7.21 7.42 7.34 6.92 6.38 5.77 5.37 5.12 4.84 4.51 4.20 3.96 3.64 3.43 3.24 3.10 2.98 2.92 3.04 3.12 3.18 3.19 3.23 3.23 3.11 3.07 2.87 2.70 2.61 2.37 2.18 2.06 1.98 1.93 1.85